Lid_Strength_Index
0 0 0 1 2 2 2 2 2 2 2 3 2 3 3 3 2 4 5 4 8 9 9 6 5 8 8 9 12 10 11 11 12 14 13 14 14 12 13 12 13 14 15 17 15 16 18 9 10 13 11 9 9 9
0 1 0 1 1 2 2 2 2 2 3 3 2 3 3 3 3 3 6 3 4 8 8 6 6 5 5 6 8 8 10 10 10 13 13 12 14 12 12 16 9 15 12 14 13 14 10 9 10 9 8 10 10 9
0 1 1 1 1 1 2 2 2 2 2 2 3 3 3 3 3 4 6 5 6 8 9 9 7 4 3 4 4 9 8 7 7 7 10 11 14 13 14 13 11 9 8 12 11 11 11 11 10 9 9 9 9 9
-0 0 0 1 1 1 2 2 2 2 2 3 3 3 3 3 3 4 6 5 5 7 11 9 2 4 2 2 3 4 5 5 6 7 10 12 12 9 12 10 11 10 10 13 11 11 10 11 10 10 10 10 10 9
0 1 0 0 0 0 1 2 2 2 2 3 3 3 3 4 4 5 6 5 5 7 10 10 6 4 3 3 4 4 5 6 7 11 11 14 10 10 9 9 11 9 12 12 13 11 10 11 10 10 11 11 11 11
0 1 1 1 1 1 1 1 2 2 3 3 3 3 3 3 4 7 8 5 4 3 8 12 6 4 3 4 4 5 5 7 8 9 13 10 7 10 12 14 10 9 9 9 10 9 10 10 10 10 11 11 11 11
1 1 1 2 1 1 1 1 1 1 2 2 2 3 3 3 6 8 8 5 3 2 7 11 10 5 3 4 6 6 5 7 8 9 11 10 10 8 12 14 10 9 9 9 8 9 11 11 12 10 10 9 10 11
1 1 1 1 1 1 1 1 1 1 1 2 2 2 2 3 4 7 4 2 2 5 6 11 11 8 4 7 9 7 7 6 8 9 9 10 8 8 12 9 9 9 9 9 10 10 11 10 11 12 11 11 12 13
1 1 1 2 2 1 1 1 1 2 2 2 2 2 4 6 8 7 1 1 2 5 9 9 12 15 5 7 7 7 7 10 8 10 10 10 12 13 10 10 10 10 11 10 9 9 10 12 12 13 13 13 14 15
0 1 1 1 2 2 1 1 1 2 2 2 4 8 11 7 1 1 4 6 7 7 6 9 8 11 7 9 9 9 7 10 13 11 8 12 14 11 11 11 11 11 11 11 11 13 13 13 13 14 15 15 16 16
1 1 1 1 1 1 1 1 1 1 2 5 8 8 5 1 5 6 10 10 9 10 9 8 8 10 6 10 12 9 10 9 13 11 11 12 14 12 11 12 12 12 13 13 14 15 15 14 14 15 16 16 16 16
0 1 1 1 1 1 1 1 1 3 5 5 5 2 3 5 7 10 10 10 10 12 10 10 9 7 8 6 9 8 10 10 14 9 12 16 14 13 13 13 13 13 14 15 15 16 16 16 16 16 16 17 17 17
1 1 1 1 1 1 1 0 0 0 1 3 5 6 7 8 11 13 14 13 14 10 9 10 12 9 8 7 11 10 11 12 10 13 15 15 13 13 14 14 15 15 15 16 16 17 17 18 18 18 19 20 20 21
0 0 1 1 1 1 1 0 0 1 3 8 9 14 11 11 10 12 12 11 9 9 8 9 10 10 10 10 9 11 11 10 13 17 17 15 14 14 15 15 16 17 17 18 19 19 20 19 20 21 22 23 23 24
1 0 0 1 1 1 1 0 1 2 7 8 8 14 11 8 7 7 7 9 9 8 8 9 9 9 10 11 9 11 12 16 14 18 17 15 15 15 16 16 17 18 19 20 20 20 21 20 20 20 20 22 22 22
0 1 2 1 1 1 1 1 2 4 6 7 8 11 9 9 9 8 8 8 7 10 9 9 11 10 13 10 12 14 14 16 15 16 15 15 16 17 17 17 17 18 19 20 20 19 19 21 22 22 22 22 24 24
1 4 1 1 1 1 1 4 4 7 9 9 10 9 9 9 8 8 8 8 6 8 10 9 12 11 10 13 12 12 15 18 15 15 15 16 17 19 19 18 18 17 17 17 18 19 20 19 18 16 19 21 20 21
3 2 0 1 2 3 4 4 7 8 10 10 13 10 9 9 9 8 8 7 7 8 8 10 10 12 14 13 15 14 15 14 15 15 16 17 17 18 18 20 19 18 19 20 19 20 19 18 17 19 19 18 17 17
2 2 1 1 3 4 7 7 7 10 11 11 10 9 9 10 10 10 8 7 7 6 7 10 13 12 13 13 14 14 15 16 16 16 16 18 17 17 18 16 18 20 20 20 18 15 18 17 17 15 14 13 16 17
1 1 1 1 1 5 7 8 6 10 12 12 10 11 10 10 10 9 8 8 8 8 10 13 12 12 15 16 14 13 14 14 15 17 17 18 16 18 19 17 17 18 17 17 17 16 15 14 13 15 15 15 15 16
2 2 1 2 4 5 6 8 9 9 10 12 10 10 11 11 12 10 11 9 9 12 14 14 12 11 14 13 12 12 14 14 16 16 17 17 18 16 15 14 16 16 16 15 15 19 17 17 15 14 16 20 19 19
4 3 5 5 7 7 8 7 9 9 10 11 10 10 11 11 11 11 10 11 13 15 15 15 13 13 14 15 14 14 14 13 13 14 15 15 15 16 16 17 16 16 15 18 14 15 16 16 16 16 20 22 18 20
3 4 6 7 9 10 10 7 10 10 14 12 10 12 14 13 12 11 14 12 16 15 14 13 12 13 14 16 13 14 14 13 14 14 14 15 15 15 16 16 14 16 17 17 14 15 18 18 19 20 20 20 17 22
4 7 8 9 9 12 9 10 9 10 11 12 12 14 12 12 12 15 13 15 17 12 13 13 13 14 14 13 16 16 15 13 14 15 13 13 14 15 14 15 15 15 13 14 15 16 17 22 21 19 21 23 22 23
10 11 10 11 9 11 12 13 12 12 14 13 15 16 15 14 18 16 13 16 14 13 13 13 14 14 15 17 16 16 13 12 14 15 15 14 16 15 15 15 15 15 14 18 21 20 22 22 22 21 21 23 18 22
12 12 12 11 11 11 12 13 14 13 13 17 17 15 15 17 18 19 15 15 15 14 14 14 14 15 14 14 14 15 14 13 13 15 15 13 14 16 17 18 19 19 16 18 17 19 19 21 22 21 23 23 23 24
14 15 12 11 11 10 13 12 11 15 18 19 17 18 19 22 21 18 16 15 15 15 12 12 12 13 13 14 13 14 14 13 13 14 14 14 15 15 16 17 18 18 16 18 20 20 17 19 23 23 23 22 19 23
13 13 18 15 15 13 16 17 18 18 17 14 15 20 22 21 20 16 14 15 14 12 12 13 13 12 13 13 14 15 16 15 16 16 16 16 16 17 19 19 17 17 20 21 22 21 20 20 21 23 24 22 21 24
14 14 17 23 20 18 19 19 18 17 16 16 19 20 21 17 17 17 14 15 14 13 14 14 14 14 14 15 15 15 16 16 18 21 23 23 23 21 20 20 20 20 20 20 17 19 19 20 22 22 22 23 23 24
18 14 19 21 22 21 20 18 19 19 17 18 17 18 19 21 18 15 14 14 15 13 13 14 15 15 16 16 17 19 19 19 19 19 19 20 19 17 18 18 19 17 19 20 22 22 18 22 20 23 23 24 24 25
14 14 18 18 20 20 20 20 20 19 19 18 18 20 23 21 18 16 16 14 13 14 15 15 16 17 16 17 17 18 17 18 19 17 17 16 16 17 17 17 17 18 16 17 20 21 23 23 23 21 21 23 25 24
17 19 21 21 22 21 20 17 17 17 21 19 21 22 22 23 23 19 17 17 15 17 17 17 17 17 17 15 16 17 17 18 19 18 18 17 17 17 17 17 16 17 17 18 20 20 21 21 21 22 23 24 25 25
18 18 19 20 22 21 21 19 18 21 17 18 18 18 18 20 25 21 18 19 18 16 16 17 15 15 16 17 18 18 18 19 19 16 16 17 18 17 18 18 17 17 17 18 19 20 20 20 21 22 24 24 24 25